Year,Month,Day,Hour,Minute,Value (Times are PST for temperature in C)
2015,04,26,00,00,1.70
2015,04,26,00,01,1.70
2015,04,26,00,02,1.70
2015,04,26,00,03,1.70
2015,04,26,00,04,1.70
2015,04,26,00,05,1.70
2015,04,26,00,06,1.70
2015,04,26,00,07,1.70
2015,04,26,00,08,1.70
2015,04,26,00,09,1.70
2015,04,26,00,10,1.70
2015,04,26,00,11,1.60
2015,04,26,00,12,1.60
2015,04,26,00,13,1.60
2015,04,26,00,14,1.60
2015,04,26,00,15,1.60
2015,04,26,00,16,1.60
2015,04,26,00,17,1.60
2015,04,26,00,18,1.60
2015,04,26,00,19,1.60
2015,04,26,00,20,1.60
2015,04,26,00,21,1.60
2015,04,26,00,22,1.60
2015,04,26,00,23,1.60
2015,04,26,00,24,1.50
2015,04,26,00,25,1.50
2015,04,26,00,26,1.50
2015,04,26,00,27,1.50
2015,04,26,00,28,1.50
2015,04,26,00,29,1.50
2015,04,26,00,30,1.50
2015,04,26,00,31,1.50
2015,04,26,00,32,1.50
2015,04,26,00,33,1.50
2015,04,26,00,34,1.50
2015,04,26,00,35,1.50
2015,04,26,00,36,1.50
2015,04,26,00,37,1.50
2015,04,26,00,38,1.50
2015,04,26,00,39,1.40
2015,04,26,00,40,1.40
2015,04,26,00,41,1.40
2015,04,26,00,42,1.40
2015,04,26,00,43,1.30
2015,04,26,00,44,1.30
2015,04,26,00,45,1.30
2015,04,26,00,46,1.30
2015,04,26,00,47,1.30
2015,04,26,00,48,1.30
2015,04,26,00,49,1.30
2015,04,26,00,50,1.30
2015,04,26,00,51,1.30
2015,04,26,00,52,1.30
2015,04,26,00,53,1.30
2015,04,26,00,54,1.30
2015,04,26,00,55,1.30
2015,04,26,00,56,1.30
2015,04,26,00,57,1.30
2015,04,26,00,58,1.30
2015,04,26,00,59,1.30
2015,04,26,01,00,1.30
2015,04,26,01,01,1.30
2015,04,26,01,02,1.30
2015,04,26,01,03,1.30
2015,04,26,01,04,1.30
2015,04,26,01,05,1.30
2015,04,26,01,06,1.30
2015,04,26,01,07,1.30
2015,04,26,01,08,1.30
2015,04,26,01,09,1.30
2015,04,26,01,10,1.30
2015,04,26,01,11,1.30
2015,04,26,01,12,1.30
2015,04,26,01,13,1.30
2015,04,26,01,14,1.30
2015,04,26,01,15,1.30
2015,04,26,01,16,1.30
2015,04,26,01,17,1.30
2015,04,26,01,18,1.30
2015,04,26,01,19,1.30
2015,04,26,01,20,1.30
2015,04,26,01,21,1.30
2015,04,26,01,22,1.30
2015,04,26,01,23,1.30
2015,04,26,01,24,1.30
2015,04,26,01,25,1.30
2015,04,26,01,26,1.30
2015,04,26,01,27,1.30
2015,04,26,01,28,1.30
2015,04,26,01,29,1.30
2015,04,26,01,30,1.30
2015,04,26,01,31,1.30
2015,04,26,01,32,1.30
2015,04,26,01,33,1.30
2015,04,26,01,34,1.30
2015,04,26,01,35,1.30
2015,04,26,01,36,1.30
2015,04,26,01,37,1.20
2015,04,26,01,38,1.20
2015,04,26,01,39,1.20
2015,04,26,01,40,1.20
2015,04,26,01,41,1.20
2015,04,26,01,42,1.20
2015,04,26,01,43,1.20
2015,04,26,01,44,1.20
2015,04,26,01,45,1.20
2015,04,26,01,46,1.20
2015,04,26,01,47,1.20
2015,04,26,01,48,1.20
2015,04,26,01,49,1.20
2015,04,26,01,50,1.20
2015,04,26,01,51,1.20
2015,04,26,01,52,1.20
2015,04,26,01,53,1.20
2015,04,26,01,54,1.20
2015,04,26,01,55,1.20
2015,04,26,01,56,1.20
2015,04,26,01,57,1.20
2015,04,26,01,58,1.20
2015,04,26,01,59,1.20
2015,04,26,02,00,1.20
2015,04,26,02,01,1.20
2015,04,26,02,02,1.20
2015,04,26,02,03,1.20
2015,04,26,02,04,1.20
2015,04,26,02,05,1.20
2015,04,26,02,06,1.20
2015,04,26,02,07,1.20
2015,04,26,02,08,1.20
2015,04,26,02,09,1.20
2015,04,26,02,10,1.20
2015,04,26,02,11,1.20
2015,04,26,02,12,1.20
2015,04,26,02,13,1.20
2015,04,26,02,14,1.20
2015,04,26,02,15,1.20
2015,04,26,02,16,1.20
2015,04,26,02,17,1.20
2015,04,26,02,18,1.20
2015,04,26,02,19,1.20
2015,04,26,02,20,1.20
2015,04,26,02,21,1.20
2015,04,26,02,22,1.20
2015,04,26,02,23,1.20
2015,04,26,02,24,1.20
2015,04,26,02,25,1.20
2015,04,26,02,26,1.20
2015,04,26,02,27,1.20
2015,04,26,02,28,1.20
2015,04,26,02,29,1.20
2015,04,26,02,30,1.20
2015,04,26,02,31,1.20
2015,04,26,02,32,1.20
2015,04,26,02,33,1.20
2015,04,26,02,34,1.20
2015,04,26,02,35,1.20
2015,04,26,02,36,1.20
2015,04,26,02,37,1.20
2015,04,26,02,38,1.20
2015,04,26,02,39,1.20
2015,04,26,02,40,1.20
2015,04,26,02,41,1.20
2015,04,26,02,42,1.20
2015,04,26,02,43,1.20
2015,04,26,02,44,1.20
2015,04,26,02,45,1.20
2015,04,26,02,46,1.20
2015,04,26,02,47,1.20
2015,04,26,02,48,1.20
2015,04,26,02,49,1.20
2015,04,26,02,50,1.20
2015,04,26,02,51,1.20
2015,04,26,02,52,1.20
2015,04,26,02,53,1.20
2015,04,26,02,54,1.20
2015,04,26,02,55,1.20
2015,04,26,02,56,1.20
2015,04,26,02,57,1.20
2015,04,26,02,58,1.20
2015,04,26,02,59,1.30
2015,04,26,03,00,1.30
2015,04,26,03,01,1.30
2015,04,26,03,02,1.30
2015,04,26,03,03,1.20
2015,04,26,03,04,1.20
2015,04,26,03,05,1.20
2015,04,26,03,06,1.20
2015,04,26,03,07,1.20
2015,04,26,03,08,1.20
2015,04,26,03,09,1.30
2015,04,26,03,10,1.30
2015,04,26,03,11,1.30
2015,04,26,03,12,1.30
2015,04,26,03,13,1.30
2015,04,26,03,14,1.30
2015,04,26,03,15,1.30
2015,04,26,03,16,1.30
2015,04,26,03,17,1.30
2015,04,26,03,18,1.30
2015,04,26,03,19,1.30
2015,04,26,03,20,1.20
2015,04,26,03,21,1.20
2015,04,26,03,22,1.30
2015,04,26,03,23,1.30
2015,04,26,03,24,1.30
2015,04,26,03,25,1.30
2015,04,26,03,26,1.30
2015,04,26,03,27,1.30
2015,04,26,03,28,1.30
2015,04,26,03,29,1.30
2015,04,26,03,30,1.30
2015,04,26,03,31,1.30
2015,04,26,03,32,1.30
2015,04,26,03,33,1.30
2015,04,26,03,34,1.30
2015,04,26,03,35,1.30
2015,04,26,03,36,1.30
2015,04,26,03,37,1.30
2015,04,26,03,38,1.30
2015,04,26,03,39,1.30
2015,04,26,03,40,1.30
2015,04,26,03,41,1.30
2015,04,26,03,42,1.30
2015,04,26,03,43,1.30
2015,04,26,03,44,1.30
2015,04,26,03,45,1.30
2015,04,26,03,46,1.30
2015,04,26,03,47,1.30
2015,04,26,03,48,1.30
2015,04,26,03,49,1.30
2015,04,26,03,50,1.30
2015,04,26,03,51,1.30
2015,04,26,03,52,1.30
2015,04,26,03,53,1.30
2015,04,26,03,54,1.30
2015,04,26,03,55,1.30
2015,04,26,03,56,1.30
2015,04,26,03,57,1.30
2015,04,26,03,58,1.30
2015,04,26,03,59,1.30
2015,04,26,04,00,1.30
2015,04,26,04,01,1.30
2015,04,26,04,02,1.30
2015,04,26,04,03,1.30
2015,04,26,04,04,1.30
2015,04,26,04,05,1.30
2015,04,26,04,06,1.30
2015,04,26,04,07,1.30
2015,04,26,04,08,1.30
2015,04,26,04,09,1.30
2015,04,26,04,10,1.30
2015,04,26,04,11,1.30
2015,04,26,04,12,1.30
2015,04,26,04,13,1.30
2015,04,26,04,14,1.30
2015,04,26,04,15,1.30
2015,04,26,04,16,1.30
2015,04,26,04,17,1.30
2015,04,26,04,18,1.30
2015,04,26,04,19,1.30
2015,04,26,04,20,1.30
2015,04,26,04,21,1.30
2015,04,26,04,22,1.30
2015,04,26,04,23,1.30
2015,04,26,04,24,1.30
2015,04,26,04,25,1.30
2015,04,26,04,26,1.30
2015,04,26,04,27,1.30
2015,04,26,04,28,1.30
2015,04,26,04,29,1.30
2015,04,26,04,30,1.30
2015,04,26,04,31,1.30
2015,04,26,04,32,1.40
2015,04,26,04,33,1.40
2015,04,26,04,34,1.40
2015,04,26,04,35,1.40
2015,04,26,04,36,1.40
2015,04,26,04,37,1.40
2015,04,26,04,38,1.50
2015,04,26,04,39,1.50
2015,04,26,04,40,1.50
2015,04,26,04,41,1.50
2015,04,26,04,42,1.50
2015,04,26,04,43,1.60
2015,04,26,04,44,1.60
2015,04,26,04,45,1.60
2015,04,26,04,46,1.60
2015,04,26,04,47,1.60
2015,04,26,04,48,1.60
2015,04,26,04,49,1.60
2015,04,26,04,50,1.60
2015,04,26,04,51,1.70
2015,04,26,04,52,1.70
2015,04,26,04,53,1.70
2015,04,26,04,54,1.70
2015,04,26,04,55,1.70
2015,04,26,04,56,1.70
2015,04,26,04,57,1.70
2015,04,26,04,58,1.70
2015,04,26,04,59,1.70
2015,04,26,05,00,1.70
2015,04,26,05,01,1.70
2015,04,26,05,02,1.70
2015,04,26,05,03,1.70
2015,04,26,05,04,1.70
2015,04,26,05,05,1.70
2015,04,26,05,06,1.70
2015,04,26,05,07,1.80
2015,04,26,05,08,1.80
2015,04,26,05,09,1.80
2015,04,26,05,10,1.80
2015,04,26,05,11,1.80
2015,04,26,05,12,1.80
2015,04,26,05,13,1.80
2015,04,26,05,14,1.80
2015,04,26,05,15,1.80
2015,04,26,05,16,1.80
2015,04,26,05,17,1.80
2015,04,26,05,18,1.80
2015,04,26,05,19,1.80
2015,04,26,05,20,1.80
2015,04,26,05,21,1.90
2015,04,26,05,22,1.90
2015,04,26,05,23,1.90
2015,04,26,05,24,1.90
2015,04,26,05,25,1.90
2015,04,26,05,26,1.90
2015,04,26,05,27,1.90
2015,04,26,05,28,1.90
2015,04,26,05,29,1.90
2015,04,26,05,30,1.90
2015,04,26,05,31,1.90
2015,04,26,05,32,1.90
2015,04,26,05,33,1.90
2015,04,26,05,34,1.90
2015,04,26,05,35,1.90
2015,04,26,05,36,2.00
2015,04,26,05,37,2.00
2015,04,26,05,38,2.00
2015,04,26,05,39,2.00
2015,04,26,05,40,2.00
2015,04,26,05,41,2.00
2015,04,26,05,42,2.00
2015,04,26,05,43,2.00
2015,04,26,05,44,2.00
2015,04,26,05,45,2.00
2015,04,26,05,46,2.00
2015,04,26,05,47,2.00
2015,04,26,05,48,2.00
2015,04,26,05,49,2.10
2015,04,26,05,50,2.10
2015,04,26,05,51,2.10
2015,04,26,05,52,2.10
2015,04,26,05,53,2.10
2015,04,26,05,54,2.10
2015,04,26,05,55,2.20
2015,04,26,05,56,2.20
2015,04,26,05,57,2.20
2015,04,26,05,58,2.20
2015,04,26,05,59,2.20
2015,04,26,06,00,2.20
2015,04,26,06,01,2.20
2015,04,26,06,02,2.30
2015,04,26,06,03,2.30
2015,04,26,06,04,2.30
2015,04,26,06,05,2.30
2015,04,26,06,06,2.30
2015,04,26,06,07,2.30
2015,04,26,06,08,2.30
2015,04,26,06,09,2.40
2015,04,26,06,10,2.40
2015,04,26,06,11,2.40
2015,04,26,06,12,2.40
2015,04,26,06,13,2.50
2015,04,26,06,14,2.50
2015,04,26,06,15,2.50
2015,04,26,06,16,2.50
2015,04,26,06,17,2.50
2015,04,26,06,18,2.60
2015,04,26,06,19,2.60
2015,04,26,06,20,2.60
2015,04,26,06,21,2.60
2015,04,26,06,22,2.60
2015,04,26,06,23,2.60
2015,04,26,06,24,2.70
2015,04,26,06,25,2.70
2015,04,26,06,26,2.70
2015,04,26,06,27,2.70
2015,04,26,06,28,2.70
2015,04,26,06,29,2.70
2015,04,26,06,30,2.70
2015,04,26,06,31,2.70
2015,04,26,06,32,2.80
2015,04,26,06,33,2.80
2015,04,26,06,34,2.80
2015,04,26,06,35,2.80
2015,04,26,06,36,2.80
2015,04,26,06,37,2.80
2015,04,26,06,38,2.80
2015,04,26,06,39,2.90
2015,04,26,06,40,2.90
2015,04,26,06,41,2.90
2015,04,26,06,42,2.90
2015,04,26,06,43,2.90
2015,04,26,06,44,2.90
2015,04,26,06,45,2.90
2015,04,26,06,46,3.00
2015,04,26,06,47,3.00
2015,04,26,06,48,3.00
2015,04,26,06,49,3.00
2015,04,26,06,50,3.10
2015,04,26,06,51,3.10
2015,04,26,06,52,3.20
2015,04,26,06,53,3.20
2015,04,26,06,54,3.20
2015,04,26,06,55,3.20
2015,04,26,06,56,3.30
2015,04,26,06,57,3.30
2015,04,26,06,58,3.30
2015,04,26,06,59,3.30
2015,04,26,07,00,3.30
2015,04,26,07,01,3.40
2015,04,26,07,02,3.40
2015,04,26,07,03,3.40
2015,04,26,07,04,3.40
2015,04,26,07,05,3.50
2015,04,26,07,06,3.50
2015,04,26,07,07,3.50
2015,04,26,07,08,3.60
2015,04,26,07,09,3.60
2015,04,26,07,10,3.60
2015,04,26,07,11,3.60
2015,04,26,07,12,3.70
2015,04,26,07,13,3.70
2015,04,26,07,14,3.70
2015,04,26,07,15,3.70
2015,04,26,07,16,3.80
2015,04,26,07,17,3.80
2015,04,26,07,18,3.80
2015,04,26,07,19,3.90
2015,04,26,07,20,3.90
2015,04,26,07,21,3.90
2015,04,26,07,22,3.90
2015,04,26,07,23,3.90
2015,04,26,07,24,4.00
2015,04,26,07,25,4.00
2015,04,26,07,26,4.00
2015,04,26,07,27,4.10
2015,04,26,07,28,4.10
2015,04,26,07,29,4.10
2015,04,26,07,30,4.20
2015,04,26,07,31,4.20
2015,04,26,07,32,4.20
2015,04,26,07,33,4.30
2015,04,26,07,34,4.30
2015,04,26,07,35,4.30
2015,04,26,07,36,4.30
2015,04,26,07,37,4.40
2015,04,26,07,38,4.40
2015,04,26,07,39,4.40
2015,04,26,07,40,4.50
2015,04,26,07,41,4.60
2015,04,26,07,42,4.60
2015,04,26,07,43,4.70
2015,04,26,07,44,4.70
2015,04,26,07,45,4.70
2015,04,26,07,46,4.80
2015,04,26,07,47,4.80
2015,04,26,07,48,4.80
2015,04,26,07,49,4.90
2015,04,26,07,50,4.90
2015,04,26,07,51,4.90
2015,04,26,07,52,5.00
2015,04,26,07,53,5.00
2015,04,26,07,54,5.10
2015,04,26,07,55,5.10
2015,04,26,07,56,5.10
2015,04,26,07,57,5.20
2015,04,26,07,58,5.20
2015,04,26,07,59,5.20
2015,04,26,08,00,5.20
2015,04,26,08,01,5.30
2015,04,26,08,02,5.30
2015,04,26,08,03,5.30
2015,04,26,08,04,5.30
2015,04,26,08,05,5.30
2015,04,26,08,06,5.40
2015,04,26,08,07,5.40
2015,04,26,08,08,5.40
2015,04,26,08,09,5.40
2015,04,26,08,10,5.40
2015,04,26,08,11,5.40
2015,04,26,08,12,5.40
2015,04,26,08,13,5.40
2015,04,26,08,14,5.40
2015,04,26,08,15,5.40
2015,04,26,08,16,5.50
2015,04,26,08,17,5.50
2015,04,26,08,18,5.50
2015,04,26,08,19,5.50
2015,04,26,08,20,5.50
2015,04,26,08,21,5.50
2015,04,26,08,22,5.50
2015,04,26,08,23,5.50
2015,04,26,08,24,5.50
2015,04,26,08,25,5.50
2015,04,26,08,26,5.50
2015,04,26,08,27,5.50
2015,04,26,08,28,5.60
2015,04,26,08,29,5.60
2015,04,26,08,30,5.60
2015,04,26,08,31,5.60
2015,04,26,08,32,5.60
2015,04,26,08,33,5.60
2015,04,26,08,34,5.60
2015,04,26,08,35,5.60
2015,04,26,08,36,5.60
2015,04,26,08,37,5.60
2015,04,26,08,38,5.60
2015,04,26,08,39,5.70
2015,04,26,08,40,5.70
2015,04,26,08,41,5.70
2015,04,26,08,42,5.70
2015,04,26,08,43,5.70
2015,04,26,08,44,5.70
2015,04,26,08,45,5.70
2015,04,26,08,46,5.70
2015,04,26,08,47,5.70
2015,04,26,08,48,5.70
2015,04,26,08,49,5.70
2015,04,26,08,50,5.70
2015,04,26,08,51,5.70
2015,04,26,08,52,5.70
2015,04,26,08,53,5.70
2015,04,26,08,54,5.70
2015,04,26,08,55,5.80
2015,04,26,08,56,5.80
2015,04,26,08,57,5.80
2015,04,26,08,58,5.80
2015,04,26,08,59,5.80
2015,04,26,09,00,5.80
2015,04,26,09,01,5.80
2015,04,26,09,02,5.80
2015,04,26,09,03,5.80
2015,04,26,09,04,5.90
2015,04,26,09,05,5.90
2015,04,26,09,06,5.90
2015,04,26,09,07,5.90
2015,04,26,09,08,5.90
2015,04,26,09,09,5.90
2015,04,26,09,10,5.90
2015,04,26,09,11,6.00
2015,04,26,09,12,6.00
2015,04,26,09,13,6.00
2015,04,26,09,14,6.00
2015,04,26,09,15,6.00
2015,04,26,09,16,6.10
2015,04,26,09,17,6.10
2015,04,26,09,18,6.00
2015,04,26,09,19,6.10
2015,04,26,09,20,6.10
2015,04,26,09,21,6.10
2015,04,26,09,22,6.10
2015,04,26,09,23,6.10
2015,04,26,09,24,6.10
2015,04,26,09,25,6.10
2015,04,26,09,26,6.10
2015,04,26,09,27,6.20
2015,04,26,09,28,6.20
2015,04,26,09,29,6.20
2015,04,26,09,30,6.20
2015,04,26,09,31,6.30
2015,04,26,09,32,6.30
2015,04,26,09,33,6.30
2015,04,26,09,34,6.40
2015,04,26,09,35,6.40
2015,04,26,09,36,6.40
2015,04,26,09,37,6.40
2015,04,26,09,38,6.40
2015,04,26,09,39,6.50
2015,04,26,09,40,6.50
2015,04,26,09,41,6.50
2015,04,26,09,42,6.60
2015,04,26,09,43,6.60
2015,04,26,09,44,6.60
2015,04,26,09,45,6.60
2015,04,26,09,46,6.70
2015,04,26,09,47,6.70
2015,04,26,09,48,6.70
2015,04,26,09,49,6.70
2015,04,26,09,50,6.70
2015,04,26,09,51,6.80
2015,04,26,09,52,6.80
2015,04,26,09,53,6.80
2015,04,26,09,54,6.90
2015,04,26,09,55,6.90
2015,04,26,09,56,7.00
2015,04,26,09,57,7.00
2015,04,26,09,58,7.10
2015,04,26,09,59,7.10
2015,04,26,10,00,7.20
2015,04,26,10,01,7.20
2015,04,26,10,02,7.20
2015,04,26,10,03,7.20
2015,04,26,10,04,7.20
2015,04,26,10,05,7.30
2015,04,26,10,06,7.30
2015,04,26,10,07,7.40
2015,04,26,10,08,7.50
2015,04,26,10,09,7.50
2015,04,26,10,10,7.60
2015,04,26,10,11,7.70
2015,04,26,10,12,7.70
2015,04,26,10,13,7.80
2015,04,26,10,14,7.90
2015,04,26,10,15,8.00
2015,04,26,10,16,8.00
2015,04,26,10,17,8.10
2015,04,26,10,18,8.10
2015,04,26,10,19,8.10
2015,04,26,10,20,8.10
2015,04,26,10,21,8.10
2015,04,26,10,22,8.10
2015,04,26,10,23,8.10
2015,04,26,10,24,8.10
2015,04,26,10,25,8.20
2015,04,26,10,26,8.20
2015,04,26,10,27,8.20
2015,04,26,10,28,8.20
2015,04,26,10,29,8.20
2015,04,26,10,30,8.20
2015,04,26,10,31,8.20
2015,04,26,10,32,8.20
2015,04,26,10,33,8.20
2015,04,26,10,34,8.20
2015,04,26,10,35,8.20
2015,04,26,10,36,8.20
2015,04,26,10,37,8.30
2015,04,26,10,38,8.30
2015,04,26,10,39,8.30
2015,04,26,10,40,8.30
2015,04,26,10,41,8.30
2015,04,26,10,42,8.40
2015,04,26,10,43,8.40
2015,04,26,10,44,8.50
2015,04,26,10,45,8.50
2015,04,26,10,46,8.50
2015,04,26,10,47,8.50
2015,04,26,10,48,8.60
2015,04,26,10,49,8.60
2015,04,26,10,50,8.60
2015,04,26,10,51,8.60
2015,04,26,10,52,8.60
2015,04,26,10,53,8.70
2015,04,26,10,54,8.70
2015,04,26,10,55,8.70
2015,04,26,10,56,8.70
2015,04,26,10,57,8.70
2015,04,26,10,58,8.60
2015,04,26,10,59,8.60
2015,04,26,11,00,8.60
2015,04,26,11,01,8.60
2015,04,26,11,02,8.60
2015,04,26,11,03,8.60
2015,04,26,11,04,8.60
2015,04,26,11,05,8.60
2015,04,26,11,06,8.60
2015,04,26,11,07,8.60
2015,04,26,11,08,8.60
2015,04,26,11,09,8.60
2015,04,26,11,10,8.70
2015,04,26,11,11,8.70
2015,04,26,11,12,8.70
2015,04,26,11,13,8.70
2015,04,26,11,14,8.70
2015,04,26,11,15,8.70
2015,04,26,11,16,8.70
2015,04,26,11,17,8.60
2015,04,26,11,18,8.60
2015,04,26,11,19,8.60
2015,04,26,11,20,8.60
2015,04,26,11,21,8.60
2015,04,26,11,22,8.50
2015,04,26,11,23,8.50
2015,04,26,11,24,8.50
2015,04,26,11,25,8.50
2015,04,26,11,26,8.50
2015,04,26,11,27,8.50
2015,04,26,11,28,8.50
2015,04,26,11,29,8.50
2015,04,26,11,30,8.60
2015,04,26,11,31,8.60
2015,04,26,11,32,8.60
2015,04,26,11,33,8.60
2015,04,26,11,34,8.60
2015,04,26,11,35,8.70
2015,04,26,11,36,8.70
2015,04,26,11,37,8.70
2015,04,26,11,38,8.60
2015,04,26,11,39,8.60
2015,04,26,11,40,8.60
2015,04,26,11,41,8.60
2015,04,26,11,42,8.60
2015,04,26,11,43,8.60
2015,04,26,11,44,8.60
2015,04,26,11,45,8.60
2015,04,26,11,46,8.50
2015,04,26,11,47,8.50
2015,04,26,11,48,8.60
2015,04,26,11,49,8.50
2015,04,26,11,50,8.50
2015,04,26,11,51,8.50
2015,04,26,11,52,8.50
2015,04,26,11,53,8.50
2015,04,26,11,54,8.40
2015,04,26,11,55,8.40
2015,04,26,11,56,8.40
2015,04,26,11,57,8.40
2015,04,26,11,58,8.40
2015,04,26,11,59,8.50
2015,04,26,12,00,8.50
2015,04,26,12,01,8.50
2015,04,26,12,02,8.50
2015,04,26,12,03,8.50
2015,04,26,12,04,8.60
2015,04,26,12,05,8.60
2015,04,26,12,06,8.60
2015,04,26,12,07,8.60
2015,04,26,12,08,8.70
2015,04,26,12,09,8.70
2015,04,26,12,10,8.70
2015,04,26,12,11,8.70
2015,04,26,12,12,8.70
2015,04,26,12,13,8.60
2015,04,26,12,14,8.70
2015,04,26,12,15,8.70
2015,04,26,12,16,8.70
2015,04,26,12,17,8.70
2015,04,26,12,18,8.80
2015,04,26,12,19,8.80
2015,04,26,12,20,8.90
2015,04,26,12,21,8.90
2015,04,26,12,22,8.90
2015,04,26,12,23,8.90
2015,04,26,12,24,8.90
2015,04,26,12,25,8.90
2015,04,26,12,26,8.90
2015,04,26,12,27,8.90
2015,04,26,12,28,9.00
2015,04,26,12,29,9.00
2015,04,26,12,30,9.00
2015,04,26,12,31,9.00
2015,04,26,12,32,8.90
2015,04,26,12,33,8.90
2015,04,26,12,34,8.90
2015,04,26,12,35,8.90
2015,04,26,12,36,9.00
2015,04,26,12,37,9.00
2015,04,26,12,38,9.00
2015,04,26,12,39,9.10
2015,04,26,12,40,9.20
2015,04,26,12,41,9.20
2015,04,26,12,42,9.20
2015,04,26,12,43,9.20
2015,04,26,12,44,9.10
2015,04,26,12,45,9.10
2015,04,26,12,46,9.10
2015,04,26,12,47,9.10
2015,04,26,12,48,9.10
2015,04,26,12,49,9.20
2015,04,26,12,50,9.20
2015,04,26,12,51,9.20
2015,04,26,12,52,9.20
2015,04,26,12,53,9.20
2015,04,26,12,54,9.20
2015,04,26,12,55,9.20
2015,04,26,12,56,9.30
2015,04,26,12,57,9.40
2015,04,26,12,58,9.40
2015,04,26,12,59,9.40
2015,04,26,13,00,9.30
2015,04,26,13,01,9.30
2015,04,26,13,02,9.30
2015,04,26,13,03,9.30
2015,04,26,13,04,9.30
2015,04,26,13,05,9.30
2015,04,26,13,06,9.30
2015,04,26,13,07,9.30
2015,04,26,13,08,9.30
2015,04,26,13,09,9.40
2015,04,26,13,10,9.40
2015,04,26,13,11,9.40
2015,04,26,13,12,9.40
2015,04,26,13,13,9.40
2015,04,26,13,14,9.40
2015,04,26,13,15,9.40
2015,04,26,13,16,9.50
2015,04,26,13,17,9.60
2015,04,26,13,18,9.60
2015,04,26,13,19,9.60
2015,04,26,13,20,9.60
2015,04,26,13,21,9.60
2015,04,26,13,22,9.70
2015,04,26,13,23,9.80
2015,04,26,13,24,9.80
2015,04,26,13,25,9.80
2015,04,26,13,26,9.90
2015,04,26,13,27,9.90
2015,04,26,13,28,10.00
2015,04,26,13,29,9.90
2015,04,26,13,30,9.90
2015,04,26,13,31,9.80
2015,04,26,13,32,9.80
2015,04,26,13,33,9.80
2015,04,26,13,34,9.80
2015,04,26,13,35,9.80
2015,04,26,13,36,9.80
2015,04,26,13,37,9.80
2015,04,26,13,38,9.90
2015,04,26,13,39,10.00
2015,04,26,13,40,10.10
2015,04,26,13,41,10.30
2015,04,26,13,42,10.30
2015,04,26,13,43,10.40
2015,04,26,13,44,10.50
2015,04,26,13,45,10.60
2015,04,26,13,46,10.50
2015,04,26,13,47,10.60
2015,04,26,13,48,10.60
2015,04,26,13,49,10.50
2015,04,26,13,50,10.50
2015,04,26,13,51,10.40
2015,04,26,13,52,10.40
2015,04,26,13,53,10.40
2015,04,26,13,54,10.40
2015,04,26,13,55,10.50
2015,04,26,13,56,10.50
2015,04,26,13,57,10.50
2015,04,26,13,58,10.50
2015,04,26,13,59,10.40
2015,04,26,14,00,10.40
2015,04,26,14,01,10.40
2015,04,26,14,02,10.40
2015,04,26,14,03,10.30
2015,04,26,14,04,10.30
2015,04,26,14,05,10.40
2015,04,26,14,06,10.40
2015,04,26,14,07,10.40
2015,04,26,14,08,10.40
2015,04,26,14,09,10.50
2015,04,26,14,10,10.40
2015,04,26,14,11,10.40
2015,04,26,14,12,10.40
2015,04,26,14,13,10.40
2015,04,26,14,14,10.40
2015,04,26,14,15,10.40
2015,04,26,14,16,10.40
2015,04,26,14,17,10.40
2015,04,26,14,18,10.40
2015,04,26,14,19,10.50
2015,04,26,14,20,10.50
2015,04,26,14,21,10.60
2015,04,26,14,22,10.60
2015,04,26,14,23,10.60
2015,04,26,14,24,10.60
2015,04,26,14,25,10.70
2015,04,26,14,26,10.70
2015,04,26,14,27,10.60
2015,04,26,14,28,10.60
2015,04,26,14,29,10.60
2015,04,26,14,30,10.60
2015,04,26,14,31,10.60
2015,04,26,14,32,10.60
2015,04,26,14,33,10.60
2015,04,26,14,34,10.60
2015,04,26,14,35,10.60
2015,04,26,14,36,10.60
2015,04,26,14,37,10.60
2015,04,26,14,38,10.50
2015,04,26,14,39,10.50
2015,04,26,14,40,10.60
2015,04,26,14,41,10.60
2015,04,26,14,42,10.60
2015,04,26,14,43,10.70
2015,04,26,14,44,10.70
2015,04,26,14,45,10.70
2015,04,26,14,46,10.80
2015,04,26,14,47,10.80
2015,04,26,14,48,10.80
2015,04,26,14,49,10.90
2015,04,26,14,50,10.90
2015,04,26,14,51,11.00
2015,04,26,14,52,11.00
2015,04,26,14,53,10.90
2015,04,26,14,54,11.00
2015,04,26,14,55,11.00
2015,04,26,14,56,11.00
2015,04,26,14,57,11.00
2015,04,26,14,58,11.00
2015,04,26,14,59,11.00
2015,04,26,15,00,11.10
2015,04,26,15,01,11.10
2015,04,26,15,02,11.10
2015,04,26,15,03,11.20
2015,04,26,15,04,11.20
2015,04,26,15,05,11.20
2015,04,26,15,06,11.20
2015,04,26,15,07,11.20
2015,04,26,15,08,11.10
2015,04,26,15,09,11.10
2015,04,26,15,10,11.00
2015,04,26,15,11,10.90
2015,04,26,15,12,10.80
2015,04,26,15,13,10.70
2015,04,26,15,14,10.70
2015,04,26,15,15,10.60
2015,04,26,15,16,10.50
2015,04,26,15,17,10.50
2015,04,26,15,18,10.40
2015,04,26,15,19,10.40
2015,04,26,15,20,10.40
2015,04,26,15,21,10.30
2015,04,26,15,22,10.30
2015,04,26,15,23,10.30
2015,04,26,15,24,10.30
2015,04,26,15,25,10.40
2015,04,26,15,26,10.40
2015,04,26,15,27,10.40
2015,04,26,15,28,10.50
2015,04,26,15,29,10.50
2015,04,26,15,30,10.50
2015,04,26,15,31,10.50
2015,04,26,15,32,10.60
2015,04,26,15,33,10.60
2015,04,26,15,34,10.60
2015,04,26,15,35,10.70
2015,04,26,15,36,10.70
2015,04,26,15,37,10.80
2015,04,26,15,38,10.80
2015,04,26,15,39,10.90
2015,04,26,15,40,10.90
2015,04,26,15,41,11.00
2015,04,26,15,42,11.10
2015,04,26,15,43,11.20
2015,04,26,15,44,11.20
2015,04,26,15,45,11.30
2015,04,26,15,46,11.30
2015,04,26,15,47,11.30
2015,04,26,15,48,11.30
2015,04,26,15,49,11.20
2015,04,26,15,50,11.20
2015,04,26,15,51,11.20
2015,04,26,15,52,11.20
2015,04,26,15,53,11.20
2015,04,26,15,54,11.30
2015,04,26,15,55,11.30
2015,04,26,15,56,11.30
2015,04,26,15,57,11.30
2015,04,26,15,58,11.30
2015,04,26,15,59,11.30
2015,04,26,16,00,11.30
2015,04,26,16,01,11.20
2015,04,26,16,02,11.20
2015,04,26,16,03,11.20
2015,04,26,16,04,11.20
2015,04,26,16,05,11.20
2015,04,26,16,06,11.20
2015,04,26,16,07,11.10
2015,04,26,16,08,11.10
2015,04,26,16,09,11.10
2015,04,26,16,10,11.00
2015,04,26,16,11,11.00
2015,04,26,16,12,11.00
2015,04,26,16,13,11.10
2015,04,26,16,14,11.10
2015,04,26,16,15,11.10
2015,04,26,16,16,11.10
2015,04,26,16,17,11.10
2015,04,26,16,18,11.10
2015,04,26,16,19,11.20
2015,04,26,16,20,11.20
2015,04,26,16,21,11.20
2015,04,26,16,22,11.20
2015,04,26,16,23,11.20
2015,04,26,16,24,11.20
2015,04,26,16,25,11.20
2015,04,26,16,26,11.20
2015,04,26,16,27,11.20
2015,04,26,16,28,11.20
2015,04,26,16,29,11.20
2015,04,26,16,30,11.20
2015,04,26,16,31,11.20
2015,04,26,16,32,11.20
2015,04,26,16,33,11.20
2015,04,26,16,34,11.20
2015,04,26,16,35,11.20
2015,04,26,16,36,11.20
2015,04,26,16,37,11.20
2015,04,26,16,38,11.20
2015,04,26,16,39,11.20
2015,04,26,16,40,11.30
2015,04,26,16,41,11.30
2015,04,26,16,42,11.30
2015,04,26,16,43,11.30
2015,04,26,16,44,11.30
2015,04,26,16,45,11.30
2015,04,26,16,46,11.20
2015,04,26,16,47,11.20
2015,04,26,16,48,11.20
2015,04,26,16,49,11.20
2015,04,26,16,50,11.20
2015,04,26,16,51,11.20
2015,04,26,16,52,11.30
2015,04,26,16,53,11.30
2015,04,26,16,54,11.30
2015,04,26,16,55,11.30
2015,04,26,16,56,11.30
2015,04,26,16,57,11.30
2015,04,26,16,58,11.40
2015,04,26,16,59,11.40
2015,04,26,17,00,11.40
2015,04,26,17,01,11.40
2015,04,26,17,02,11.40
2015,04,26,17,03,11.40
2015,04,26,17,04,11.40
2015,04,26,17,05,11.40
2015,04,26,17,06,11.40
2015,04,26,17,07,11.40
2015,04,26,17,08,11.40
2015,04,26,17,09,11.40
2015,04,26,17,10,11.50
2015,04,26,17,11,11.50
2015,04,26,17,12,11.50
2015,04,26,17,13,11.50
2015,04,26,17,14,11.50
2015,04,26,17,15,11.60
2015,04,26,17,16,11.60
2015,04,26,17,17,11.60
2015,04,26,17,18,11.60
2015,04,26,17,19,11.60
2015,04,26,17,20,11.50
2015,04,26,17,21,11.50
2015,04,26,17,22,11.40
2015,04,26,17,23,11.40
2015,04,26,17,24,11.40
2015,04,26,17,25,11.30
2015,04,26,17,26,11.40
2015,04,26,17,27,11.40
2015,04,26,17,28,11.40
2015,04,26,17,29,11.40
2015,04,26,17,30,11.40
2015,04,26,17,31,11.50
2015,04,26,17,32,11.60
2015,04,26,17,33,11.60
2015,04,26,17,34,11.60
2015,04,26,17,35,11.60
2015,04,26,17,36,11.60
2015,04,26,17,37,11.70
2015,04,26,17,38,11.70
2015,04,26,17,39,11.70
2015,04,26,17,40,11.80
2015,04,26,17,41,11.80
2015,04,26,17,42,11.80
2015,04,26,17,43,11.90
2015,04,26,17,44,11.90
2015,04,26,17,45,11.90
2015,04,26,17,46,11.90
2015,04,26,17,47,11.90
2015,04,26,17,48,11.90
2015,04,26,17,49,11.80
2015,04,26,17,50,11.80
2015,04,26,17,51,11.80
2015,04,26,17,52,11.80
2015,04,26,17,53,11.80
2015,04,26,17,54,11.80
2015,04,26,17,55,11.80